Home   Weather   Las Palmas   Past weeks
Flag for Spain

Past Weather in Las Palmas, Canary Islands, Spain — Yesterday and Last 2 Weeks

Now
66 °F

Passing clouds.


Feels Like: 66 °F
Forecast: 73 / 67 °F
Wind: 28 mph from North

Location: Las Palmas De Gran Canaria / Gando

Current Time: May 24, 2019 at 8:32:16 am

Latest Report: May 24, 2019 at 7:30 am


Visibility: N/A

Pressure: 30.01 "Hg

Humidity: 73%

Dew Point: 57 °F

Location of Las PalmasLocation

Past Weather in Las Palmas — Graph

°F

Las Palmas Temperature Yesterday

Maximum temperature yesterday: 77 °F (at 4:00 pm)
Minimum temperature yesterday: 68 °F (at 12:00 am)
Average temperature yesterday: 70 °F

High & Low Weather Summary for the Past Weeks

 TemperatureHumidityPressure
High81 °F (May 13, 4:00 pm)94% (May 17, 8:00 am)30.07 "Hg (May 17, 8:00 am)
Low63 °F (May 12, 7:30 am)47% (May 20, 11:30 am)29.86 "Hg (May 13, 7:30 pm)
Average70 °F70%29.97 "Hg
* Reported May 9 7:00 am — May 24 7:00 am, Las Palmas. Weather by CustomWeather, © 2019

Note: Actual official high and low records may vary slightly from our data, if they occured in-between our weather recording intervals... More about our weather records

Advertising

Las Palmas Weather History for the Previous 24 Hours

Scroll right to see more
 ConditionsComfort  
Time TempWeatherWind HumidityBarometerVisibility
7:00 am
Fri, May 24
66 °FPassing clouds.28 mph73%30.01 "HgN/A
6:30 am66 °FPassing clouds.25 mph78%30.01 "HgN/A
6:00 am66 °FPassing clouds.24 mph78%30.01 "HgN/A
5:30 am66 °FPassing clouds.26 mph78%29.98 "HgN/A
5:00 am66 °FPassing clouds.32 mph73%29.98 "HgN/A
4:30 am66 °FPassing clouds.32 mph78%29.98 "HgN/A
4:00 am66 °FPassing clouds.32 mph73%29.98 "HgN/A
3:30 am68 °FPassing clouds.31 mph69%29.98 "HgN/A
3:00 am66 °FPassing clouds.32 mph78%30.01 "HgN/A
2:30 am66 °FPassing clouds.29 mph73%30.01 "HgN/A
2:00 am68 °FPassing clouds.28 mph64%30.01 "HgN/A
1:30 am68 °FPassing clouds.24 mph60%30.01 "HgN/A
1:00 am68 °FPassing clouds.24 mph60%30.01 "HgN/A
12:30 am68 °FPassing clouds.24 mph64%30.04 "HgN/A
12:00 am68 °FPassing clouds.28 mph69%30.04 "HgN/A
11:30 pm
Thu, May 23
68 °FPassing clouds.24 mph69%30.04 "HgN/A
11:00 pm68 °FPassing clouds.26 mph69%30.07 "HgN/A
10:30 pm68 °FPassing clouds.26 mph69%30.07 "HgN/A
10:00 pm68 °FPassing clouds.28 mph73%30.04 "HgN/A
9:30 pm68 °FPassing clouds.24 mph69%30.04 "HgN/A
9:00 pm70 °FPassing clouds.30 mph64%30.01 "HgN/A
8:30 pm70 °FPassing clouds.29 mph60%30.01 "HgN/A
8:00 pm70 °FPassing clouds.28 mph64%30.01 "HgN/A
7:30 pm72 °FPassing clouds.31 mph65%30.01 "HgN/A
7:00 pm72 °FPassing clouds.30 mph57%30.01 "HgN/A
6:30 pm72 °FPassing clouds.32 mph57%30.01 "HgN/A
6:00 pm73 °FPassing clouds.32 mph53%30.01 "HgN/A
5:30 pm75 °FPassing clouds.30 mph54%30.01 "HgN/A
5:00 pm75 °FPassing clouds.35 mph54%30.01 "HgN/A
4:30 pm75 °FPassing clouds.35 mph54%30.01 "HgN/A
4:00 pm77 °FPassing clouds.33 mph54%30.01 "HgN/A
3:30 pm73 °FPassing clouds.35 mph61%30.04 "HgN/A
3:00 pm75 °FPassing clouds.32 mph57%30.04 "HgN/A
2:00 pm75 °FScattered clouds.31 mph54%30.04 "HgN/A
1:30 pm75 °FScattered clouds.35 mph54%30.04 "HgN/A
1:00 pm73 °FScattered clouds.38 mph65%30.04 "HgN/A
12:30 pm73 °FPassing clouds.36 mph61%30.04 "HgN/A
12:00 pm73 °FPassing clouds.37 mph61%30.04 "HgN/A
11:30 am73 °FPassing clouds.32 mph57%30.04 "HgN/A
11:00 am73 °FPassing clouds.31 mph53%30.04 "HgN/A
10:30 am72 °FPassing clouds.31 mph57%30.04 "HgN/A
10:00 am72 °FScattered clouds.32 mph57%30.04 "HgN/A
9:30 am70 °FPassing clouds.28 mph57%30.04 "HgN/A
9:00 am68 °FPassing clouds.28 mph64%30.04 "HgN/A
8:30 am68 °FScattered clouds.28 mph64%30.04 "HgN/A
8:00 am68 °FScattered clouds.25 mph69%30.04 "HgN/A
Weather by CustomWeather, © 2019

See weather overview